Location: Haulchin
(50.3172°N, 3.4360°E)
Time: 14:43:37
(UTC+00:00)

Cosmos 1315 Rocket - Pass Details

Date: 23 May 2024
Orbit: 515 x 542 km, 81.2° (Epoch: 18 June)

Event Time Altitude Azimuth Distance (km) Brightness Sun altitude
Exits shadow 01:40:19 26° 203° (SSW) 1,048 3.6 -14.5°
Maximum altitude 01:42:22 73° 283° (WNW) 557 2.7 -14.3°
Drops below altitude 10° 01:46:18 10° 9° (N) 1,789 6.6 -14.0°
Sets 01:48:29 0° 11° (NNE) 2,690 7.8 -13.8°
